Home   Weather   Siafa Washington Town   Past weeks
Flag for Liberia

Past Weather in Siafa Washington Town, Liberia — Yesterday and Last 2 Weeks

Now
79 °F

Partly sunny.


Feels Like: 83 °F
Forecast: N/A
Wind: N/A

Location: Roberts Field

Current Time: Oct 14, 2019 at 7:18:54 pm

Latest Report: Oct 14, 2019 at 6:30 pm


Visibility: N/A

Pressure: 29.86 "Hg

Humidity: 94%

Dew Point: 77 °F

Location of Siafa Washington TownLocation

Past Weather in Siafa Washington Town — Graph

°F

Siafa Washington Town Temperature Yesterday

Maximum temperature yesterday: 86 °F (at 3:00 pm)
Minimum temperature yesterday: 73 °F (at 4:00 am)
Average temperature yesterday: 77 °F

High & Low Weather Summary for the Past Weeks

 TemperatureHumidityPressure
High91 °F (Oct 1, 1:30 pm)100% (Oct 1, 7:30 am)29.95 "Hg (Oct 1, 7:30 am)
Low73 °F (Oct 6, 4:00 am)55% (Oct 1, 1:00 pm)29.74 "Hg (Oct 10, 4:00 pm)
Average79 °F88%29.86 "Hg
* Reported Sep 29 6:00 pm — Oct 14 6:00 pm, Siafa Washington Town. Weather by CustomWeather, © 2019

Note: Actual official high and low records may vary slightly from our data, if they occured in-between our weather recording intervals... More about our weather records

Advertising

Siafa Washington Town Weather History for the Previous 24 Hours

Scroll right to see more
 ConditionsComfort  
Time TempWeatherWind HumidityBarometerVisibility
6:00 pm
Mon, Oct 14
81 °FPartly sunny.N/A84%29.86 "HgN/A
5:30 pm81 °FPartly sunny.N/A84%29.83 "HgN/A
5:00 pm82 °FPartly sunny.N/A79%29.86 "HgN/A
4:30 pm84 °FPartly sunny.N/A79%29.86 "HgN/A
4:00 pm84 °FPartly sunny.N/A79%29.83 "HgN/A
3:30 pm82 °FPartly sunny.N/A84%29.86 "HgN/A
3:00 pm81 °FPartly sunny.N/A89%29.86 "HgN/A
2:30 pm84 °FPartly sunny.N/A79%29.86 "HgN/A
2:00 pm86 °FPartly sunny.7 mph70%29.86 "HgN/A
1:30 pm86 °FPartly sunny.9 mph70%29.86 "HgN/A
1:00 pm86 °FPartly sunny.8 mph75%29.89 "HgN/A
12:30 pm84 °FPartly sunny.7 mph74%29.89 "HgN/A
12:00 pm84 °FPartly sunny.9 mph74%29.89 "HgN/A
11:30 am84 °FPartly sunny.9 mph74%29.92 "HgN/A
11:00 am84 °FPartly sunny.8 mph74%29.92 "HgN/A
10:30 am82 °FPartly sunny.6 mph84%29.95 "HgN/A
10:00 am82 °FPartly sunny.7 mph84%29.95 "HgN/A
9:30 am82 °FPartly sunny.6 mph84%29.92 "HgN/A
9:00 am81 °FScattered clouds.7 mph84%29.92 "HgN/A
8:30 am81 °FScattered clouds.6 mph84%29.92 "HgN/A
8:00 am79 °FScattered clouds.5 mph94%29.92 "HgN/A
7:30 am77 °FScattered clouds.6 mph94%29.89 "HgN/A
7:00 am75 °FPassing clouds.No wind94%29.92 "HgN/A
6:30 am75 °FPassing clouds.No wind94%29.89 "HgN/A
6:00 am75 °FPassing clouds.No wind94%29.89 "HgN/A
5:00 am75 °FPassing clouds.No wind94%29.89 "HgN/A
4:00 am75 °FLight rain. Passing clouds.No wind94%29.89 "Hg6 mi
3:00 am77 °FPassing clouds.No wind94%29.89 "HgN/A
2:00 am77 °FPassing clouds.No wind94%29.92 "HgN/A
1:30 am77 °FPassing clouds.No wind94%29.92 "HgN/A
1:00 am77 °FPassing clouds.No wind94%29.92 "Hg6 mi
12:30 am77 °FPassing clouds.No wind94%29.92 "HgN/A
12:00 am77 °FRain. Passing clouds.No wind94%29.95 "HgN/A
11:30 pm
Sun, Oct 13
77 °FLight rain. Passing clouds.No wind94%29.95 "Hg6 mi
11:00 pm77 °FLight rain. Passing clouds.No wind94%29.95 "Hg5 mi
10:30 pm77 °FPassing clouds.No wind94%29.95 "HgN/A
10:00 pm77 °FPassing clouds.No wind94%29.95 "HgN/A
9:30 pm77 °FPassing clouds.No wind94%29.92 "HgN/A
9:00 pm77 °FLight rain. Passing clouds.No wind94%29.92 "Hg4 mi
8:30 pm77 °FLight rain. Passing clouds.No wind94%29.89 "Hg4 mi
8:00 pm77 °FLight rain. Passing clouds.No wind94%29.89 "Hg5 mi
7:30 pm77 °FLight rain. Passing clouds.No wind94%29.89 "Hg5 mi
7:00 pm77 °FLight rain. Partly sunny.No wind94%29.89 "Hg5 mi
Weather by CustomWeather, © 2019

See weather overview